This is the latest recevied weather packets stored in our database for station/object WD7CGF. If no packets are shown the sender has not sent any weather packets the latest 10 day(s).
| Time | Temp. | Humidity | Pressure | Rain* | Wind** | Luminosity | Snow |
|---|---|---|---|---|---|---|---|
| 1777601907 | 20.56° C | 37% | 1016.4 hPa | 0 mm | - | - | - |
| 1777601294 | 20.56° C | 37% | 1016.1 hPa | 0 mm | - | - | - |
| 1777600706 | 21.11° C | 35% | 1016.2 hPa | 0 mm | - | - | - |
| 1777600093 | 21.11° C | 37% | 1016.2 hPa | 0 mm | - | - | - |
| 1777599499 | 21.11° C | 34% | 1016.2 hPa | 0 mm | - | - | - |
| 1777598904 | 21.67° C | 33% | 1016.3 hPa | 0 mm | - | - | - |
| 1777598295 | 21.67° C | 34% | 1016.3 hPa | 0 mm | - | - | - |
| 1777597700 | 21.67° C | 35% | 1016.6 hPa | 0 mm | - | - | - |
| 1777597106 | 21.67° C | 32% | 1016.7 hPa | 0 mm | - | - | - |
| 1777596498 | 21.67° C | 32% | 1016.7 hPa | 0 mm | - | - | - |
| 1777595910 | 22.22° C | 33% | 1016.9 hPa | 0 mm | - | - | - |
| 1777595297 | 22.22° C | 32% | 1017 hPa | 0 mm | - | - | - |
| 1777594704 | 22.22° C | 34% | 1017 hPa | 0 mm | - | - | - |
| 1777594092 | 21.67° C | 32% | 1017 hPa | 0 mm | - | - | - |
| 1777593501 | 22.22° C | 32% | 1017 hPa | 0 mm | - | - | - |
| 1777592908 | 22.22° C | 33% | 1017 hPa | 0 mm | - | - | - |
| 1777592296 | 21.67° C | 32% | 1017.1 hPa | 0 mm | - | - | - |
| 1777591097 | 22.78° C | 31% | 1017.3 hPa | 0 mm | - | - | - |
| 1777590503 | 22.78° C | 29% | 1017.4 hPa | 0 mm | - | - | - |
| 1777589911 | 22.22° C | 32% | 1017.5 hPa | 0 mm | - | - | - |
| 1777589297 | 22.22° C | 31% | 1017.5 hPa | 0 mm | - | - | - |
| 1777588708 | 22.78° C | 31% | 1017.6 hPa | 0 mm | - | - | - |
| 1777588094 | 22.78° C | 32% | 1017.9 hPa | 0 mm | - | - | - |
| 1777587502 | 23.33° C | 30% | 1017.9 hPa | 0 mm | - | - | - |
| 1777586908 | 23.33° C | 32% | 1017.9 hPa | 0 mm | - | - | - |
* Rain since midnight (hover to see other rain measurements)
** Current wind speed in m/s (hover to see current wind gust speed)